This is the latest recevied weather packets stored in our database for station/object KA3BQE-13. If no packets are shown the sender has not sent any weather packets the latest 10 day(s).
| Time | Temp. | Humidity | Pressure | Rain* | Wind** | Luminosity | Snow |
|---|---|---|---|---|---|---|---|
| 1777984571 | 10° C | 72% | 1011.2 hPa | 0 mm | - | 24 W/m² | - |
| 1777984268 | 10° C | 74% | 1011.2 hPa | 0 mm | - | 20 W/m² | - |
| 1777983965 | 10° C | 73% | 1011.1 hPa | 0 mm | - | 17 W/m² | - |
| 1777983662 | 10° C | 73% | 1010.9 hPa | 0 mm | - | 17 W/m² | - |
| 1777983358 | 10° C | 73% | 1010.9 hPa | 0 mm | - | 17 W/m² | - |
| 1777983055 | 10° C | 73% | 1010.7 hPa | 0 mm | - | 14 W/m² | - |
| 1777982751 | 10° C | 77% | 1010.4 hPa | 0 mm | - | 13 W/m² | - |
| 1777982447 | 10° C | 76% | 1010.2 hPa | 0 mm | - | 10 W/m² | - |
| 1777982142 | 10° C | 74% | 1010.1 hPa | 0 mm | - | 9 W/m² | - |
| 1777981840 | 10° C | 76% | 1010 hPa | 0 mm | - | 8 W/m² | - |
| 1777981536 | 10° C | 77% | 1009.9 hPa | 0 mm | - | 8 W/m² | - |
| 1777981233 | 10° C | 80% | 1009.6 hPa | 0 mm | - | 9 W/m² | - |
| 1777980929 | 10° C | 78% | 1009.5 hPa | 0.51 mm | - | 8 W/m² | - |
| 1777980626 | 10° C | 78% | 1009.5 hPa | 0.51 mm | - | 13 W/m² | - |
| 1777980322 | 10° C | 79% | 1009.3 hPa | 0 mm | - | 9 W/m² | - |
| 1777980021 | 10° C | 79% | 1009.5 hPa | 0 mm | - | 6 W/m² | - |
| 1777979715 | 10° C | 77% | 1009.2 hPa | 0 mm | - | 4 W/m² | - |
| 1777979411 | 10.56° C | 76% | 1009.1 hPa | 0 mm | - | 2 W/m² | - |
| 1777979108 | 10.56° C | 74% | 1009.3 hPa | 0 mm | - | 1 W/m² | - |
| 1777978804 | 10° C | 78% | 1009.1 hPa | 0 mm | - | 0 W/m² | - |
| 1777978501 | 10.56° C | 74% | 1009.1 hPa | 0 mm | - | 0 W/m² | - |
| 1777978197 | 10.56° C | 77% | 1008.8 hPa | 0 mm | - | 1 W/m² | - |
| 1777977894 | 10.56° C | 76% | 1008.7 hPa | 0 mm | - | 0 W/m² | - |
| 1777977591 | 10° C | 80% | 1008.5 hPa | 0 mm | - | 0 W/m² | - |
| 1777977288 | 10.56° C | 77% | 1008.3 hPa | 0 mm | - | 0 W/m² | - |
* Rain latest hour (hover to see other rain measurements)
** Current wind speed in m/s (hover to see current wind gust speed)